Weather History for Jackson, WY

Change the Weather History Date:

Wednesday, February 20, 2013

  Actual Average Record
Temperature  
Mean Temperature 16 °F -  
Max Temperature 28 °F 34 °F 52 °F (1981)
Min Temperature 3 °F 5 °F -18 °F (1967)
Degree Days  
Heating Degree Days 50    
Moisture  
Dew Point 10 °F    
Average Humidity 84    
Maximum Humidity 100    
Minimum Humidity 64    
Precipitation  
Precipitation 0.00 in - - ()
Sea Level Pressure  
Sea Level Pressure 29.65 in    
Wind  
Wind Speed 5 mph (NNE)    
Max Wind Speed 9 mph    
Max Gust Speed -    
Visibility 10 miles    
Events      
Averages and records for this station are not official NWS values.
T = Trace of Precipitation, MM = Missing Value Source: NWS Daily Summary

Daily Weather History Graph

Daily Weather History Graph

Search for Another Location

Airport:

Trip Planner

Search our weather history database for the weather conditions in past years. The results will help you decide how hot, cold, wet, or windy it might be!

Date:

Astronomy

Feb. 20, 2013 Rise Set
Actual Time 7:13 AM MST 6:00 PM MST
Civil Twilight 6:44 AM MST 6:29 PM MST
Nautical Twilight 6:11 AM MST 7:02 PM MST
Astronomical Twilight 5:37 AM MST 7:36 PM MST
Moon 1:19 PM MST (2/20) 3:42 AM MST (2/20)
Length of Visible Light 11h 45m
Length of Day
10h 46m
Waxing Gibbous, 76% of the Moon is Illuminated
Feb 20
Waxing Gibbous
Feb 25
Full
Mar 4
Last Quarter
Mar 11
New
Mar 19
First Quarter

Hourly Weather History & Observations

Time (MST) Temp. Windchill Dew Point Humidity Pressure Visibility Wind Dir Wind Speed Gust Speed Precip Events Conditions
12:15 AM 10.4 °F 2.2 °F 8.6 °F 92% 29.67 in 10.0 mi NNE 4.6 mph - N/A   Scattered Clouds
12:35 AM 10.4 °F -0.4 °F 8.6 °F 92% 29.66 in 10.0 mi North 6.9 mph - N/A   Scattered Clouds
12:55 AM 10.4 °F -0.4 °F 8.6 °F 92% 29.66 in 10.0 mi North 6.9 mph - N/A   Mostly Cloudy
1:15 AM 12.2 °F 0.7 °F 10.4 °F 92% 29.66 in 10.0 mi North 8.1 mph - N/A   Overcast
1:55 AM 10.4 °F -0.4 °F 8.6 °F 92% 29.66 in 10.0 mi North 6.9 mph - N/A   Overcast
2:15 AM 10.4 °F - 6.8 °F 85% 29.66 in 10.0 mi Calm Calm - N/A   Overcast
2:35 AM 12.2 °F - 8.6 °F 85% 29.66 in 10.0 mi Calm Calm - N/A   Overcast
2:55 AM 10.4 °F -0.4 °F 6.8 °F 85% 29.66 in 10.0 mi North 6.9 mph - N/A   Partly Cloudy
3:15 AM 10.4 °F -2.4 °F 8.6 °F 92% 29.65 in 10.0 mi NNE 9.2 mph - N/A   Clear
3:35 AM 10.4 °F 2.2 °F 8.6 °F 92% 29.66 in 10.0 mi North 4.6 mph - N/A   Partly Cloudy
4:35 AM 8.6 °F -3.7 °F 6.8 °F 92% 29.66 in 10.0 mi North 8.1 mph - N/A   Mostly Cloudy
4:55 AM 8.6 °F 0.1 °F 6.8 °F 92% 29.66 in 10.0 mi North 4.6 mph - N/A   Mostly Cloudy
5:15 AM 6.8 °F -4.8 °F 5.0 °F 92% 29.66 in 10.0 mi North 6.9 mph - N/A   Overcast
5:35 AM 6.8 °F -5.9 °F 3.2 °F 85% 29.66 in 10.0 mi North 8.1 mph - N/A   Scattered Clouds
5:55 AM 3.2 °F -10.3 °F 3.2 °F 100% 29.66 in 10.0 mi North 8.1 mph - N/A   Mostly Cloudy
6:15 AM 5.0 °F -5.6 °F 3.2 °F 92% 29.66 in 10.0 mi NNE 5.8 mph - N/A   Mostly Cloudy
6:35 AM 6.8 °F -3.5 °F 3.2 °F 85% 29.66 in 10.0 mi North 5.8 mph - N/A   Mostly Cloudy
6:52 AM 6.8 °F -4.8 °F 5.0 °F 92% 29.67 in 10.0 mi North 6.9 mph - N/A   Scattered Clouds
7:54 AM 6.8 °F -0.1 °F 5.0 °F 92% 29.68 in 10.0 mi North 3.5 mph - N/A   Mostly Cloudy
8:57 AM 8.6 °F 2.0 °F 6.8 °F 92% 29.68 in 10.0 mi North 3.5 mph - N/A   Mostly Cloudy
10:04 AM 14.0 °F - 8.6 °F 79% 29.67 in 10.0 mi Calm Calm - N/A   Scattered Clouds
10:54 AM 17.6 °F - 10.4 °F 73% 29.67 in 10.0 mi Calm Calm - N/A   Scattered Clouds
11:58 AM 19.4 °F 12.8 °F 12.2 °F 74% 29.65 in 10.0 mi East 4.6 mph - N/A   Scattered Clouds
12:53 PM 23.0 °F - 14.0 °F 68% 29.63 in 10.0 mi Calm Calm - N/A   Scattered Clouds
1:55 PM 24.8 °F - 15.8 °F 69% 29.61 in 10.0 mi Calm Calm - N/A   Mostly Cloudy
2:51 PM 26.6 °F - 15.8 °F 64% 29.60 in 10.0 mi Calm Calm - N/A   Mostly Cloudy
3:55 PM 28.4 °F - 17.6 °F 64% 29.60 in 10.0 mi Calm Calm - N/A   Mostly Cloudy
4:52 PM 28.4 °F 24.6 °F 17.6 °F 64% 29.60 in 10.0 mi ESE 3.5 mph - N/A   Mostly Cloudy
5:51 PM 24.8 °F 20.5 °F 17.6 °F 74% 29.62 in 10.0 mi East 3.5 mph - N/A   Mostly Cloudy
6:51 PM 26.6 °F - 19.4 °F 74% 29.64 in 10.0 mi Calm Calm - N/A   Mostly Cloudy
7:51 PM 26.6 °F - 21.2 °F 80% 29.65 in 10.0 mi Calm Calm - N/A   Mostly Cloudy
8:51 PM 24.8 °F 20.5 °F 21.2 °F 86% 29.65 in 10.0 mi ENE 3.5 mph - N/A   Mostly Cloudy